Montgomery, AL

6:34 PM CDT on September 25, 2016 (GMT -0500)
Maxwell Air Force Base

Weather History for KMXF - October, 2012

Change the Weather History Date:

Saturday, October 27, 2012

  Actual Average Record
Temperature  
Mean Temperature 59 °F -  
Max Temperature 65 °F 75 °F 90 °F (2010)
Min Temperature 52 °F 53 °F 41 °F (2005)
Degree Days  
Heating Degree Days 6    
Growing Degree Days 9 (Base 50)    
Moisture  
Dew Point 50 °F    
Average Humidity 78    
Maximum Humidity 88    
Minimum Humidity 67    
Precipitation  
Precipitation 0.00 in - - ()
Sea Level Pressure  
Sea Level Pressure 29.93 in    
Wind  
Wind Speed 8 mph (NW)    
Max Wind Speed 14 mph    
Max Gust Speed 20 mph    
Visibility 10 miles    
Events      
Averages and records for this station are not official NWS values.
T = Trace of Precipitation, MM = Missing Value Source: NWS Daily Summary

Daily Weather History Graph

Daily Weather History Graph

Search for Another Location

Airport or City:

Trip Planner

Search our weather history database for the weather conditions in past years. The results will help you decide how hot, cold, wet, or windy it might be!

Date:

Astronomy

Oct. 27, 2012 Rise Set
Actual Time 6:58 AM CDT 5:59 PM CDT
Civil Twilight 6:33 AM CDT 6:24 PM CDT
Nautical Twilight 6:04 AM CDT 6:53 PM CDT
Astronomical Twilight 5:36 AM CDT 7:21 PM CDT
Moon 4:41 PM CDT (10/27) 4:58 AM CDT (10/27)
Length of Visible Light 11h 50m
Length of Day
11h 00m
Waxing Gibbous, 96% of the Moon is Illuminated
Oct 27
Waxing Gibbous
Oct 29
Full
Nov 6
Last Quarter
Nov 13
New
Nov 20
First Quarter

Hourly Weather History & Observations

Time (CDT) Temp. Dew Point Humidity Pressure Visibility Wind Dir Wind Speed Gust Speed Precip Events Conditions
12:55 AM 66.2 °F 61.0 °F 83% 29.91 in 10.0 mi WNW 5.8 mph - N/A   Clear
1:55 AM 64.0 °F 59.5 °F 85% 29.91 in 10.0 mi WNW 6.9 mph - N/A   Scattered Clouds
2:55 AM 61.3 °F 56.3 °F 83% 29.91 in 10.0 mi WNW 8.1 mph - N/A   Clear
3:55 AM 57.7 °F 52.7 °F 83% 29.91 in 10.0 mi WNW 8.1 mph - N/A   Clear
4:55 AM 56.1 °F 51.1 °F 83% 29.93 in 10.0 mi WNW 5.8 mph - N/A   Mostly Cloudy
5:02 AM 55.4 °F 51.8 °F 88% 29.93 in 10.0 mi WNW 6.9 mph - N/A   Mostly Cloudy
5:34 AM 55.4 °F 50.0 °F 82% 29.93 in 10.0 mi WNW 4.6 mph - N/A   Mostly Cloudy
5:55 AM 55.4 °F 50.7 °F 84% 29.93 in 10.0 mi WNW 4.6 mph - N/A   Mostly Cloudy
6:50 AM 55.4 °F 50.0 °F 82% 29.94 in 10.0 mi WNW 6.9 mph - N/A   Mostly Cloudy
6:55 AM 55.0 °F 50.0 °F 83% 29.94 in 10.0 mi WNW 6.9 mph - N/A   Mostly Cloudy
7:39 AM 55.4 °F 50.0 °F 82% 29.95 in 10.0 mi WNW 5.8 mph - N/A   Overcast
7:48 AM 55.4 °F 50.0 °F 82% 29.95 in 10.0 mi NW 9.2 mph - N/A   Overcast
7:55 AM 54.9 °F 49.6 °F 83% 29.96 in 10.0 mi NW 9.2 mph - N/A   Overcast
8:14 AM 55.4 °F 50.0 °F 82% 29.96 in 10.0 mi NNW 9.2 mph - N/A   Overcast
8:21 AM 57.2 °F 50.0 °F 77% 29.96 in 10.0 mi NW 11.5 mph - N/A   Overcast
8:55 AM 56.5 °F 49.5 °F 77% 29.96 in 10.0 mi NNW 10.4 mph - N/A   Overcast
9:55 AM 56.8 °F 48.7 °F 74% 29.96 in 10.0 mi NW 12.7 mph - N/A   Overcast
10:55 AM 57.7 °F 48.9 °F 72% 29.96 in 10.0 mi NW 11.5 mph - N/A   Overcast
11:55 AM 58.5 °F 49.3 °F 72% 29.95 in 10.0 mi NW 10.4 mph - N/A   Overcast
12:55 PM 58.6 °F 48.9 °F 70% 29.92 in 10.0 mi NW 9.2 mph - N/A   Overcast
1:20 PM 59.0 °F 48.2 °F 67% 29.91 in 10.0 mi NW 11.5 mph - N/A   Overcast
1:55 PM 59.2 °F 48.6 °F 68% 29.90 in 10.0 mi WNW 10.4 mph - N/A   Overcast
2:55 PM 57.7 °F 48.4 °F 71% 29.89 in 10.0 mi WNW 8.1 mph - N/A   Overcast
3:36 PM 57.2 °F 48.2 °F 72% 29.89 in 10.0 mi NW 13.8 mph - N/A   Overcast
3:55 PM 56.8 °F 48.2 °F 73% 29.89 in 10.0 mi NW 10.4 mph - N/A   Overcast
4:12 PM 57.2 °F 48.2 °F 72% 29.89 in 10.0 mi WNW 10.4 mph - N/A   Overcast
4:15 PM 57.2 °F 48.2 °F 72% 29.89 in 10.0 mi NW 9.2 mph - N/A   Overcast
4:55 PM 55.8 °F 47.7 °F 74% 29.89 in 10.0 mi NW 11.5 mph - N/A   Overcast
5:55 PM 54.7 °F 47.5 °F 77% 29.90 in 10.0 mi NW 9.2 mph - N/A   Overcast
6:55 PM 53.8 °F 47.1 °F 78% 29.92 in 10.0 mi NW 10.4 mph - N/A   Overcast
7:55 PM 53.4 °F 46.9 °F 79% 29.93 in 10.0 mi NW 12.7 mph - N/A   Overcast
8:55 PM 53.4 °F 46.4 °F 77% 29.94 in 10.0 mi NNW 11.5 mph - N/A   Overcast
9:55 PM 52.9 °F 46.4 °F 79% 29.94 in 10.0 mi NNW 11.5 mph 19.6 mph N/A   Overcast
10:55 PM 52.3 °F 46.0 °F 79% 29.92 in 10.0 mi NNW 10.4 mph - N/A   Overcast
11:55 PM 52.3 °F 45.9 °F 79% 29.91 in 10.0 mi NNW 8.1 mph - N/A   Overcast